This demonstration page uses our WeatherBlox Daily Observations layout. Learn more.

40.92945, -100.16068

Hourly Observations for December 8, 2019

Temp ( °F °C ) Dew Point ( °F °C ) Humidity (%) Winds ( mph kmh ) Pressure ( in mb ) Visibility ( mi km ) Precip ( " mm )
12:15 am 00:15 Clear 33 0.6 32 -0.2 94 94 W 5 7 29.92 1013 10 16.0934 0 0
12:35 am 00:35 Clear 32 0 31 -0.7 95 95 W 6 9 29.93 1013 10 16.0934 0 0
12:55 am 00:55 Clear 31 -0.5 30 -1.3 94 94 WNW 7 11 29.93 1014 10 16.0934 0 0
1:15 am 01:15 Clear 32 0 31 -0.8 94 94 WNW 8 13 29.93 1013 10 16.0934 0 0
1:35 am 01:35 Clear 31 -0.5 30 -1.2 95 95 W 3 6 29.92 1013 10 16.0934 0 0
1:55 am 01:55 Clear 31 -0.3 30 -1 95 95 WNW 7 11 29.92 1013 10 16.0934 0 0
2:15 am 02:15 Clear 32 0.2 31 -0.7 94 94 W 12 19 29.92 1013 10 16.0934 0 0
2:35 am 02:35 Clear 32 0.1 31 -0.8 94 94 W 5 7 29.92 1013 10 16.0934 0 0
2:55 am 02:55 Clear 33 0.4 31 -0.7 92 92 WNW 9 15 29.91 1013 10 16.0934 0 0
3:15 am 03:15 Clear 33 0.5 31 -0.7 92 92 WNW 7 11 29.91 1013 10 16.0934 0 0
3:35 am 03:35 Clear 32 0.1 30 -1 92 92 WNW 7 11 29.92 1013 10 16.0934 0 0
3:55 am 03:55 Clear 33 0.4 31 -0.7 92 92 W 8 13 29.9 1013 10 16.0934 0 0
4:15 am 04:15 Clear 33 0.4 31 -0.8 92 92 W 8 13 29.91 1013 10 16.0934 0 0
4:35 am 04:35 Clear 34 1.1 31 -0.5 89 89 W 9 15 29.91 1013 10 16.0934 0 0
4:55 am 04:55 Clear 35 1.4 31 -0.5 87 87 WNW 10 17 29.89 1012 10 16.0934 0 0
5:15 am 05:15 Clear 34 1.1 31 -0.5 89 89 W 8 13 29.9 1012 10 16.0934 0 0
5:35 am 05:35 Clear 33 0.8 31 -0.8 89 89 WNW 8 13 29.9 1012 10 16.0934 0 0
5:55 am 05:55 Clear 33 0.8 30 -1 88 88 WNW 8 13 29.89 1012 10 16.0934 0 0
6:15 am 06:15 Clear 33 0.5 31 -0.8 91 91 WNW 8 13 29.89 1012 10 16.0934 0 0
6:35 am 06:35 Clear 33 0.5 31 -0.8 91 91 WNW 6 9 29.89 1012 10 16.0934 0 0
6:55 am 06:55 Clear 33 0.7 31 -0.8 90 90 WNW 6 9 29.89 1012 10 16.0934 0 0
7:15 am 07:15 Clear 32 0 30 -1 93 93 WNW 8 13 29.9 1012 10 16.0934 0 0
7:35 am 07:35 Clear 32 0 30 -1.1 92 92 WNW 8 13 29.9 1012 10 16.0934 0 0
7:55 am 07:55 Sunny 32 0 30 -1.1 92 92 WNW 8 13 29.9 1012 10 16.0934 0 0
8:15 am 08:15 Sunny 32 0 30 -1.1 92 92 WNW 7 11 29.89 1012 10 16.0934 0 0
8:35 am 08:35 Sunny 33 0.4 30 -0.9 91 91 WNW 6 9 29.88 1012 10 16.0934 0 0
8:55 am 08:55 Sunny 33 0.4 31 -0.6 93 93 WNW 5 7 29.88 1012 10 16.0934 0 0
9:15 am 09:15 Sunny 34 1 31 -0.3 91 91 W 5 7 29.88 1012 10 16.0934 0 0
9:35 am 09:35 Sunny 35 1.5 32 -0.1 89 89 WNW 6 9 29.88 1012 10 16.0934 0 0
9:55 am 09:55 Sunny 36 2 32 0 87 87 WNW 7 11 29.88 1012 10 16.0934 0 0
10:15 am 10:15 Sunny 36 2.4 32 0.1 85 85 WNW 5 7 29.86 1011 10 16.0934 0 0
10:35 am 10:35 Sunny 37 3 33 0.5 84 84 W 7 11 29.87 1011 10 16.0934 0 0
10:55 am 10:55 Sunny 38 3.2 33 0.6 83 83 WNW 7 11 29.86 1011 10 16.0934 0 0
11:15 am 11:15 Sunny 39 4.1 33 0.8 79 79 WNW 9 15 29.84 1010 10 16.0934 0 0
11:35 am 11:35 Sunny 40 4.7 34 1 77 77 NW 9 15 29.81 1010 10 16.0934 0 0
11:55 am 11:55 Sunny 42 5.6 33 0.8 72 72 NW 7 11 29.79 1009 10 16.0934 0 0
12:15 pm 12:15 Sunny 43 6.1 35 1.4 72 72 NW 6 9 29.78 1008 10 16.0934 0 0
12:35 pm 12:35 Sunny 44 6.5 35 1.8 72 72 W 5 7 29.76 1008 10 16.0934 0 0
12:55 pm 12:55 Sunny 43 6.3 35 1.9 74 74 W 5 7 29.76 1008 10 16.0934 0 0
1:15 pm 13:15 Sunny 44 6.5 36 2 73 73 Calm 29.73 1007 10 16.0934 0 0
1:35 pm 13:35 Sunny 44 6.6 35 1.7 71 71 Calm 29.72 1007 10 16.0934 0 0
1:55 pm 13:55 Sunny 45 7 36 2.1 71 71 Calm 29.72 1006 10 16.0934 0 0
2:15 pm 14:15 Sunny 45 7.2 37 2.5 72 72 Calm 29.71 1006 10 16.0934 0 0
2:35 pm 14:35 Sunny 46 7.9 37 2.6 69 69 Calm 29.69 1005 10 16.0934 0 0
2:55 pm 14:55 Sunny 47 8.5 38 3.1 69 69 SSE 5 7 29.67 1005 10 16.0934 0 0
3:15 pm 15:15 Sunny 48 8.9 38 3.1 67 67 SSE 3 6 29.67 1005 10 16.0934 0 0
3:35 pm 15:35 Sunny 49 9.2 37 3 65 65 S 5 7 29.65 1004 10 16.0934 0 0
3:55 pm 15:55 Sunny 48 9 38 3.4 68 68 SSE 5 7 29.65 1004 10 16.0934 0 0
4:10 pm 16:10 Sunny 48 8.7 38 3.6 71 71 SSE 5 7 29.65 1004 10 16.0934 0 0
4:35 pm 16:35 Sunny 46 7.7 37 2.8 71 71 SSE 3 6 29.65 1004 10 16.0934 0 0
4:55 pm 16:55 Sunny 44 6.9 36 2.4 73 73 SE 3 6 29.66 1004 10 16.0934 0 0
5:15 pm 17:15 Clear 44 6.5 36 2.1 74 74 SE 5 7 29.66 1005 10 16.0934 0 0
5:35 pm 17:35 Clear 43 6.3 36 2 74 74 Calm 29.67 1005 10 16.0934 0 0
5:55 pm 17:55 Clear 38 3.6 34 1.2 85 85 Calm 29.69 1005 10 16.0934 0 0
6:15 pm 18:15 Clear 37 3 34 1 87 87 Calm 29.69 1005 10 16.0934 0 0
6:35 pm 18:35 Clear 38 3.1 34 1.3 88 88 Calm 29.69 1005 10 16.0934 0 0
6:55 pm 18:55 Clear 38 3.1 35 1.6 90 90 Calm 29.69 1005 10 16.0934 0 0
7:15 pm 19:15 Clear 38 3.6 35 1.8 88 88 E 3 6 29.68 1005 10 16.0934 0 0
7:35 pm 19:35 Clear 38 3.4 35 1.7 89 89 SE 7 11 29.68 1005 10 16.0934 0 0
7:55 pm 19:55 Clear 40 4.7 36 2 83 83 SE 6 9 29.66 1004 10 16.0934 0 0
8:15 pm 20:15 Clear 38 3.2 34 1.2 87 87 S 5 7 29.68 1005 10 16.0934 0 0
8:35 pm 20:35 Clear 37 2.5 33 0.7 88 88 Calm 29.69 1005 10 16.0934 0 0
8:55 pm 20:55 Clear 36 2 33 0.7 91 91 Calm 29.69 1005 10 16.0934 0 0
9:15 pm 21:15 Clear 40 4.2 33 0.7 78 78 S 3 6 29.66 1004 10 16.0934 0 0
9:35 pm 21:35 Clear 41 5 34 1 76 76 Calm 29.64 1004 10 16.0934 0 0
9:55 pm 21:55 Clear 39 4 33 0.8 80 80 Calm 29.65 1004 10 16.0934 0 0
10:15 pm 22:15 Clear 36 2.3 33 0.4 87 87 Calm 29.66 1005 10 16.0934 0 0
10:35 pm 22:35 Clear 34 1.1 32 0 92 92 S 3 6 29.66 1005 10 16.0934 0 0
10:55 pm 22:55 Mostly Cloudy 34 1.2 32 0.2 93 93 Calm 29.65 1004 10 16.0934 0 0
11:15 pm 23:15 Mostly Cloudy 34 1.2 33 0.3 94 94 Calm 29.66 1005 10 16.0934 0 0
11:35 pm 23:35 Mostly Cloudy 35 1.5 33 0.5 93 93 SSW 3 6 29.65 1004 10 16.0934 0 0
11:55 pm 23:55 Cloudy 36 2.3 34 1 91 91 W 5 7 29.65 1004 10 16.0934 0 0

Powered by AerisWeather